EW0610 Weather Reports


Display with metric or nautical units.
time (UTC)temp
F
wind
direction
speed
MPH
gust
MPH
rain 1hr
in
rain 24hr
in
rain mn
in
humidity
%
barometer
mb
20260504231536 81 190 5.0 21.0 0.00 0.00 0.00 56 1005.6
20260504231030 81 190 11.0 21.0 0.00 0.00 0.00 55 1005.6
20260504230539 81 205 13.0 20.0 0.00 0.00 0.00 55 1005.5
20260504230019 81 236 13.0 21.0 0.00 0.00 0.00 55 1005.5
20260504225525 82 187 13.0 21.0 0.00 0.00 0.00 54 1005.5
20260504225030 82 211 12.0 18.0 0.00 0.00 0.00 54 1005.7
20260504224538 82 218 13.0 18.0 0.00 0.00 0.00 54 1005.7
20260504224027 82 202 4.0 17.0 0.00 0.00 0.00 54 1005.8
20260504223538 83 214 8.0 21.0 0.00 0.00 0.00 54 1005.9
20260504223024 83 206 9.0 21.0 0.00 0.00 0.00 53 1005.8
20260504222532 83 158 12.0 17.0 0.00 0.00 0.00 53 1005.7
20260504222023 83 213 9.0 21.0 0.00 0.00 0.00 53 1005.7
20260504221526 83 220 7.0 22.0 0.00 0.00 0.00 53 1005.8
20260504221103 83 204 12.0 22.0 0.00 0.00 0.00 53 1005.9
20260504220525 83 206 14.0 20.0 0.00 0.00 0.00 52 1005.9
20260504220033 83 191 8.0 16.0 0.00 0.00 0.00 53 1005.9
20260504215524 83 233 7.0 17.0 0.00 0.00 0.00 53 1006.0
20260504215026 83 177 8.0 17.0 0.00 0.00 0.00 53 1006.0
20260504214532 83 163 10.0 19.0 0.00 0.00 0.00 53 1006.0
20260504214031 83 124 11.0 19.0 0.00 0.00 0.00 53 1006.2
20260504213537 82 125 9.0 20.0 0.00 0.00 0.00 53 1006.2
20260504213024 82 189 13.0 23.0 0.00 0.00 0.00 53 1006.3
20260504212530 83 212 9.0 21.0 0.00 0.00 0.00 53 1006.6
20260504212035 83 202 12.0 20.0 0.00 0.00 0.00 52 1006.7
20260504211545 83 158 9.0 20.0 0.00 0.00 0.00 52 1006.7
20260504211032 83 218 8.0 20.0 0.00 0.00 0.00 52 1006.5
20260504210559 83 210 12.0 20.0 0.00 0.00 0.00 52 1006.5
20260504210046 83 208 10.0 18.0 0.00 0.00 0.00 52 1006.8
20260504205528 83 202 10.0 19.0 0.00 0.00 0.00 53 1007.0
20260504205103 83 226 10.0 20.0 0.00 0.00 0.00 54 1007.0
20260504204543 83 168 10.0 20.0 0.00 0.00 0.00 52 1007.0
20260504204046 83 148 10.0 14.0 0.00 0.00 0.00 52 1007.2
20260504203540 83 191 8.0 16.0 0.00 0.00 0.00 53 1007.2
20260504203025 83 184 9.0 16.0 0.00 0.00 0.00 53 1007.4
20260504202529 82 194 6.0 20.0 0.00 0.00 0.00 54 1007.5
20260504202040 82 179 11.0 21.0 0.00 0.00 0.00 53 1007.5
20260504201524 82 164 12.0 19.0 0.00 0.00 0.00 54 1007.8
20260504201032 82 210 11.0 19.0 0.00 0.00 0.00 53 1007.9
20260504200524 82 182 14.0 22.0 0.00 0.00 0.00 53 1008.0
20260504200043 81 210 8.0 22.0 0.00 0.00 0.00 54 1008.0
20260504195545 81 198 14.0 21.0 0.00 0.00 0.00 52 1008.1
20260504195050 82 205 11.0 18.0 0.00 0.00 0.00 52 1008.5
20260504194552 82 217 11.0 18.0 0.00 0.00 0.00 52 1008.5
20260504194037 81 224 5.0 19.0 0.00 0.00 0.00 54 1008.7
20260504193523 81 174 10.0 19.0 0.00 0.00 0.00 52 1008.7
20260504193046 81 208 7.0 15.0 0.00 0.00 0.00 54 1008.6
20260504192537 80 198 9.0 22.0 0.00 0.00 0.00 53 1008.7
20260504192043 81 199 15.0 22.0 0.00 0.00 0.00 53 1008.7
20260504191545 81 192 11.0 19.0 0.00 0.00 0.00 53 1008.9
20260504191048 81 207 10.0 19.0 0.00 0.00 0.00 54 1008.9
20260504190547 80 173 11.0 20.0 0.00 0.00 0.00 53 1009.0
20260504190034 80 210 13.0 23.0 0.00 0.00 0.00 53 1009.1
20260504185519 80 256 13.0 23.0 0.00 0.00 0.00 53 1009.3
20260504185027 80 215 12.0 20.0 0.00 0.00 0.00 54 1009.3
20260504184537 80 211 10.0 20.0 0.00 0.00 0.00 54 1009.3
20260504184042 80 171 10.0 18.0 0.00 0.00 0.00 53 1009.5
20260504183532 80 236 10.0 19.0 0.00 0.00 0.00 54 1009.4
20260504183020 80 177 9.0 20.0 0.00 0.00 0.00 54 1009.6
20260504182545 79 196 5.0 20.0 0.00 0.00 0.00 54 1009.8
20260504182029 79 197 9.0 19.0 0.00 0.00 0.00 55 1009.8
20260504181533 79 185 13.0 19.0 0.00 0.00 0.00 55 1009.9
20260504181036 78 189 7.0 16.0 0.00 0.00 0.00 56 1009.9
20260504180523 78 179 10.0 16.0 0.00 0.00 0.00 56 1010.0
20260504180033 78 216 11.0 19.0 0.00 0.00 0.00 55 1010.1
20260504175532 78 170 4.0 19.0 0.00 0.00 0.00 55 1010.2
20260504175020 77 212 10.0 18.0 0.00 0.00 0.00 57 1010.1
20260504174533 77 214 9.0 20.0 0.00 0.00 0.00 56 1010.3
20260504174045 77 204 10.0 20.0 0.00 0.00 0.00 56 1010.7
20260504173534 78 193 10.0 17.0 0.00 0.00 0.00 56 1010.7
20260504173053 77 213 8.0 17.0 0.00 0.00 0.00 57 1010.7
20260504172550 77 224 8.0 18.0 0.00 0.00 0.00 57 1010.7
20260504172100 76 142 10.0 18.0 0.00 0.00 0.00 56 1010.8
20260504171546 76 202 9.0 19.0 0.00 0.00 0.00 56 1010.8
20260504171048 76 230 13.0 19.0 0.00 0.00 0.00 57 1011.0
20260504170603 76 216 5.0 20.0 0.00 0.00 0.00 57 1011.1
20260504151042 72 187 10.0 19.0 0.00 0.00 0.00 61 1011.9
20260504150526 71 193 11.0 23.0 0.00 0.00 0.00 62 1012.0
20260504141028 68 228 4.0 17.0 0.00 0.00 0.00 67 1012.2
20260504140554 67 242 8.0 20.0 0.00 0.00 0.00 68 1012.2
20260504130524 64 204 12.0 15.0 0.00 0.00 0.00 71 1012.6
20260504110539 63 203 0.0 11.0 0.00 0.00 0.00 68 1012.1
20260504100534 64 203 8.0 15.0 0.00 0.00 0.00 65 1012.6
20260504081530 65 191 7.0 15.0 0.00 0.00 0.00 58 1013.0
20260504081033 65 181 7.0 16.0 0.00 0.00 0.00 58 1013.1
20260504080539 66 199 6.0 16.0 0.00 0.00 0.00 57 1013.2
20260504050526 69 202 6.0 12.0 0.00 0.00 0.00 51 1015.1
20260504045533 69 153 6.0 15.0 0.00 0.00 0.00 50 1015.1
20260504045021 69 206 6.0 11.0 0.00 0.00 0.00 50 1015.2
20260504044534 69 185 3.0 11.0 0.00 0.00 0.00 50 1015.2
20260504044041 69 197 5.0 9.0 0.00 0.00 0.00 50 1015.3
20260504043548 69 199 1.0 10.0 0.00 0.00 0.00 50 1015.3
20260504043030 69 212 6.0 10.0 0.00 0.00 0.00 50 1015.3
20260504042535 70 212 2.0 11.0 0.00 0.00 0.00 49 1015.4
20260504042024 70 202 1.0 11.0 0.00 0.00 0.00 49 1015.5
20260504041527 70 191 3.0 11.0 0.00 0.00 0.00 49 1015.6
20260504041039 70 201 0.0 12.0 0.00 0.00 0.00 49 1015.5
20260504040555 70 206 2.0 12.0 0.00 0.00 0.00 48 1015.6
20260504040041 70 153 5.0 11.0 0.00 0.00 0.00 48 1015.4
20260504035525 70 136 8.0 11.0 0.00 0.00 0.00 48 1015.5
20260504035032 70 191 5.0 14.0 0.00 0.00 0.00 48 1015.4
20260504034535 71 196 5.0 14.0 0.00 0.00 0.00 47 1015.4
20260504034040 71 169 3.0 14.0 0.00 0.00 0.00 47 1015.3
20260504033544 71 193 3.0 14.0 0.00 0.00 0.00 47 1015.3
20260504033054 71 211 0.0 13.0 0.00 0.00 0.00 47 1015.3
20260504032524 71 195 4.0 13.0 0.00 0.00 0.00 46 1015.3
20260504032028 71 194 2.0 10.0 0.00 0.00 0.00 46 1015.4
20260504031555 71 195 4.0 10.0 0.00 0.00 0.00 46 1015.4
20260504031040 71 187 0.0 10.0 0.00 0.00 0.00 46 1015.3
20260504030526 71 207 1.0 9.0 0.00 0.00 0.00 45 1015.3
20260504030034 72 153 2.0 10.0 0.00 0.00 0.00 45 1015.2
20260504025524 72 153 1.0 12.0 0.00 0.00 0.00 44 1015.2
20260504025030 72 196 5.0 12.0 0.00 0.00 0.00 44 1015.2
20260504024538 72 215 0.0 10.0 0.00 0.00 0.00 44 1015.2
20260504024035 72 208 2.0 13.0 0.00 0.00 0.00 43 1015.2
20260504023525 73 153 6.0 13.0 0.00 0.00 0.00 42 1015.1
20260504023033 73 216 4.0 12.0 0.00 0.00 0.00 42 1015.2
20260504022541 73 173 4.0 12.0 0.00 0.00 0.00 41 1015.0
20260504022050 73 153 4.0 10.0 0.00 0.00 0.00 41 1015.0
20260504021533 73 201 5.0 11.0 0.00 0.00 0.00 41 1014.9
20260504021039 74 202 5.0 12.0 0.00 0.00 0.00 40 1014.9
20260504020529 74 203 7.0 12.0 0.00 0.00 0.00 40 1015.0
20260504020034 74 179 4.0 13.0 0.00 0.00 0.00 40 1015.0
20260504015539 74 209 3.0 13.0 0.00 0.00 0.00 40 1015.0
20260504015024 74 208 5.0 13.0 0.00 0.00 0.00 40 1015.0
20260504014534 74 189 2.0 11.0 0.00 0.00 0.00 40 1015.1
20260504014022 75 175 4.0 13.0 0.00 0.00 0.00 40 1015.0
20260504013553 75 203 3.0 13.0 0.00 0.00 0.00 39 1014.8
20260504013039 75 165 2.0 11.0 0.00 0.00 0.00 39 1014.7
20260504012542 76 179 2.0 13.0 0.00 0.00 0.00 38 1014.8
20260504012024 76 216 0.0 11.0 0.00 0.00 0.00 37 1014.7
20260504011534 76 164 1.0 11.0 0.00 0.00 0.00 37 1014.7
20260504011022 76 204 4.0 11.0 0.00 0.00 0.00 36 1014.7
20260504010530 76 166 3.0 13.0 0.00 0.00 0.00 35 1014.7
20260504010032 77 182 6.0 18.0 0.00 0.00 0.00 35 1014.7
20260504005520 77 153 11.0 18.0 0.00 0.00 0.00 34 1014.4
20260504005029 77 220 6.0 14.0 0.00 0.00 0.00 35 1014.4
20260504004532 77 187 5.0 13.0 0.00 0.00 0.00 35 1014.5
20260504004039 78 179 2.0 15.0 0.00 0.00 0.00 34 1014.4
20260504003548 78 169 9.0 15.0 0.00 0.00 0.00 34 1014.4
20260504003053 78 179 7.0 13.0 0.00 0.00 0.00 33 1014.5
20260504002537 78 189 3.0 17.0 0.00 0.00 0.00 34 1014.5
20260504002045 79 195 9.0 17.0 0.00 0.00 0.00 32 1014.6
20260504001528 79 202 8.0 15.0 0.00 0.00 0.00 32 1014.7
20260504001035 79 199 4.0 12.0 0.00 0.00 0.00 33 1014.7
20260504000541 79 153 2.0 14.0 0.00 0.00 0.00 32 1014.7
20260504000031 80 158 7.0 15.0 0.00 0.00 0.00 33 1014.7
20260503235540 80 204 9.0 15.0 0.00 0.00 0.00 32 1014.7
20260503235026 80 216 1.0 13.0 0.00 0.00 0.00 32 1014.8
20260503234534 80 216 5.0 13.0 0.00 0.00 0.00 30 1014.8
20260503234019 80 229 0.0 15.0 0.00 0.00 0.00 31 1014.9
20260503233540 80 190 3.0 16.0 0.00 0.00 0.00 30 1014.8
20260503233024 80 199 10.0 16.0 0.00 0.00 0.00 30 1014.9
20260503232532 80 217 2.0 13.0 0.00 0.00 0.00 31 1014.9
20260503232100 81 198 7.0 15.0 0.00 0.00 0.00 31 1014.9